Regional Weather Roundup
Issued by NWS Green Bay, WI

Home | Current Version | Previous Version | Graphics & Text | Print | Product List | Glossary Off
Versions: 1 2 3 4 5 6 7 8 9 10 11 12 13 14 15 16 17 18 19 20 21 22 23 24 25 26 27 28 29 30 31 32 33 34 35 36 37 38 39 40 41 42 43 44 45 46 47 48 49 50

000
ASUS43 KGRB 092059
RWRGRB

NORTH-CENTRAL AND NORTHEAST WISCONSIN REGIONAL WEATHER ROUNDUP
NATIONAL WEATHER SERVICE GREEN BAY WI
400 PM CDT WED JUL 09 2014

WIZ005-009-010>012-018-019-092200-
NORTH CENTRAL WISCONSIN

CITY           SKY/WX    TMP DP  RH WIND       PRES   REMARKS
IRONWOOD       NOT AVBL
MANITOWISH WTR NOT AVBL
ARBOR VITAE    NOT AVBL
EAGLE RIVER    NOT AVBL
LAND O LAKES   NOT AVBL
RHINELANDER    PTSUNNY   63  46  54 NW8       30.02R
PHILLIPS       PTSUNNY   66  49  53 W7        30.01R
ANTIGO         NOT AVBL
TOMAHAWK       NOT AVBL
MERRILL        NOT AVBL
$$

WIZ013-073-092200-
NORTHEAST WISCONSIN

CITY           SKY/WX    TMP DP  RH WIND       PRES   REMARKS
IRON MOUNTAIN  CLOUDY    66  49  54 NW10      29.96R
MARINETTE      CLOUDY    64  52  63 NW5       29.96R
$$

WIZ017-030-035>037-045-092200-
CENTRAL WISCONSIN

CITY           SKY/WX    TMP DP  RH WIND       PRES   REMARKS
MEDFORD        NOT AVBL
WAUSAU         PTSUNNY   70  47  43 N13       29.99R
MOSINEE        PTSUNNY   66  48  52 NW10      30.01R
MARSHFIELD     PTSUNNY   71  52  50 NW13      30.01R
WISC RAPIDS    PTSUNNY   71  49  45 NW12      30.02R
STEVENS POINT  NOT AVBL
WAUPACA        PTSUNNY   72  49  44 NW9       29.99S
SHAWANO        CLOUDY    70  47  44 NW9       29.98R
CLINTONVILLE   CLOUDY    68  46  45 N8        29.98S
$$

WIZ038-039-048-051-092200-
FOX VALLEY

CITY           SKY/WX    TMP DP  RH WIND       PRES   REMARKS
NWS GREEN BAY  CLOUDY    70  49  47 N9        29.97R
APPLETON       NOT AVBL
OSHKOSH        PTSUNNY   73  50  44 NW13      29.98R
FOND DU LAC    MOSUNNY   73  48  41 NW14      29.98S
$$

WIZ022-050-052-092200-
EAST CENTRAL WISCONSIN

CITY           SKY/WX    TMP DP  RH WIND       PRES   REMARKS
STURGEON BAY   CLOUDY    64  46  52 NW5       29.98R
MANITOWOC      NOT AVBL
SHEBOYGAN      SUNNY     73  51  46 NW10G18   29.96S
$$

LMZ563-521-522-541>543-092200-
LAKESHORE

STATION/POSITION TIME  TEMP    WIND        PRES    VSBY  WAVE
                       AIR SEA DIR/SP/G                  HT/PER
                 (UTC) (F)     (DEG/KT/KT) (MB)    (MI)  (FT/S)
SHEBOYGAN LKSHOR 2000   58     170/ 14/ 14 1014.9R
KEWAUNEE LKSHORE 2000   56     180/  8/ 10 1015.5R
NORTHPORT PIER   2000   64     270/  6/ 10 1014.2R
N MID LAKE BUOY  2000   57 56  210/  6/  6 1013.9R         0
SISTER BAY LKSHO 2000   66        CALM       N/A
MENOMINEE LKSHOR 2000   65     310/  6/ 10 1015.1R
$$


USA.gov is the U.S. government's official web portal to all federal, state and local government web resources and services.